Location: Putah Creek Observatory
(38.7021°N, 122.3865°W)
Time: 11:48:34
(UTC-07:00)

Cosmos 2322 - Pass Details

Date: 27 May 2018
Orbit: 842 x 853 km, 71.0° (Epoch: 15 October)

Event Time Altitude Azimuth Distance (km) Brightness Sun altitude
Rises 22:03:40 0° 339° (NNW) 3,431 8.2 -16.1°
Reaches altitude 10° 22:06:08 10° 342° (NNW) 2,491 7.2 -16.5°
Maximum altitude 22:11:52 71° 66° (ENE) 901 3.7 -17.2°
Enters shadow 22:14:48 29° 144° (SE) 1,500 4.4 -17.6°
